User: anonymous   Login
Location: Unspecified
(0.0000°N, 0.0000°E)
Time: 00:07:00
(UTC+02:00)
Language:

ATLAS 2AS CENTAUR R/B - Orbit

View from above orbital plane
View from above orbital plane
View from above satellite
View from above satellite

Ground track
Ground track

The orbit data is extracted from the following two-line orbital elements,

1 28096U 03054B   16122.84244946 0.00000000  00000-0  00000-0 0    03
2 28096  63.6684  17.5304 0270000 275.1408  84.8592 13.40807581    09
Epoch (UTC): 01 May 2016 20:13:07
Eccentricity: 0.0270000
inclination: 63.6684°
perigee height: 904 km
apogee height: 1308 km
right ascension of ascending node: 17.5304°
argument of perigee: 275.1408°
revolutions per day: 13.40807581
mean anomaly at epoch: 84.8592°
orbit number at epoch: 0

The dashed part of the orbit path shows where the satellite is in the earth's shadow,  

DLR